www.pogodaiklimat.ru

Погода и климат >> Архив погоды >> Таиланд >> Дон Муанг


ПОГОДА в Дон Муанг

  • Прогноз погоды в Дон Муанг
  • Монитор погоды в Дон Муанг

АРХИВ ПОГОДЫ в Дон Муанг

Время (UTC), дата Ветер
(напр.,м/с)
 
Видим.   Явления Облачность Т
(С)
Тd
(С)
f
(%)
Тe
(С)
Тes
(С)
Комфортность P
(гПа)
Po
(гПа)
Тmin
(С)
Tmax
(С)
R
(мм)
R24
(мм)
S
(см)
18 13.07 З 9 10 км 6/1 600 м
[Cu hum Ac trans Cs]
+28.9 +22.7 69 +38 +38 очень
душно
1008.9 1007.5
21 13.07 З 11 10 км 6/1 600 м
[Cu hum Ac trans Cs]
+26.3 +22.9 82 +35 +35 очень
душно
1007.9 1006.5
00 14.07 З 8 10 км 8/1 600 м
[Cu hum Ac trans Cs]
+27.9 +21.6 69 +36 +36 очень
душно
1007.5 1006.1 +27.3
03 14.07 З 12 10 км 8/1 600 м
[Cu hum Ac trans Cs]
+30.9 +22.7 62 +41 +41 опасность
перегрева
1008.5 1007.1
06 14.07 З 16 10 км 8/3 600 м
[Cu hum Ac lent Cs]
+33.6 +21.9 50 +42 +42 опасность
перегрева
1007.4 1006.0
09 14.07 СЗ 15 10 км 8/1 600 м
[Cu hum Ac trans Cs]
+33.4 +22.5 53 +43 +43 опасность
перегрева
1005.0 1003.6
12 14.07 З 13 10 км 6/1 600 м
[Cu hum Ac trans Cs]
+32.1 +22.1 56 +41 +41 опасность
перегрева
1005.0 1003.6 +33.9
15 14.07 З 11 10 км 6/1 600 м
[Cu hum Ac trans Cs]
+29.9 +22.4 64 +39 +39 очень
душно
1007.5 1006.1
18 14.07 З 8 10 км 6/1 600 м
[Cu hum Ac trans Cs]
+28.8 +22.1 67 +37 +37 очень
душно
1007.2 1005.8
21 14.07 З 9 10 км 6/3 600 м
[Cu med, cong Ac trans Cs]
+28.3 +21.8 68 +36 +36 очень
душно
1005.7 1004.3
00 15.07 ЮЗ 8 10 км 6/0
[Ac trans Cs]
+27.9 +22.8 74 +37 +37 очень
душно
1006.0 1004.6 +27.7
03 15.07 З 12 10 км 8/1 600 м
[Cu hum Ac trans Cs]
+31.5 +23.2 61 +42 +42 опасность
перегрева
1007.2 1005.9
06 15.07 З 11 10 км 8/3 600 м
[Cu hum Ac trans Cs]
+33.4 +23.3 56 +44 +44 опасность
перегрева
1005.6 1004.2
09 15.07 З 10 10 км 8/3 600 м
[Cb cap Ac trans Cs]
+33.6 +22.7 53 +43 +43 опасность
перегрева
1003.5 1002.1
12 15.07 Ю 10 10 км слаб. ливневой дождь {гроза} 8/4 600 м
[Cb cap Ac As Cs]
+26.1 +24.2 89 +36 +36 очень
душно
1004.3 1002.9 +34.1 0.0
15 15.07 ЮЗ 5 10 км {дождь} 6/3 600 м
[Cu Sc Ac trans Cs]
+27.1 +24.5 86 +38 +38 очень
душно
1006.7 1005.3 0.0
18 15.07 З 8 10 км {дождь} 4/1 600 м
[Cu med, cong Ac trans Cs]
+27.9 +22.6 73 +37 +37 очень
душно
1006.1 1004.7 0.0
21 15.07 Ю 6 10 км 4/1 600 м
[Cu med, cong Ac trans Cs]
+27.1 +22.7 77 +36 +36 очень
душно
1005.5 1004.1
00 16.07 Ю 5 10 км 5/3 600 м
[Cu hum Ac trans Cs]
+28.1 +22.8 73 +37 +38 очень
душно
1006.4 1005.0 +27.1
03 16.07 З 8 12 км 5/1 600 м
[Cu hum Ac lent Cs]
+31.6 +22.4 58 +41 +43 опасность
перегрева
1006.7 1005.3
06 16.07 З 12 12 км 6/4 600 м
[Cu Sc Ac lent Cs]
+33.8 +23.5 55 +45 +45 опасность
перегрева
1005.3 1004.0
09 16.07 ЮЗ 6 10 км 6/3 600 м
[Cu hum Ac lent Cs]
+34.6 +23.9 54 +46 +48 опасность
перегрева
1002.4 1001.0
12 16.07 Ю 6 10 км 6/3 600 м
[Cu hum Ac lent Cs]
+31.5 +25.1 69 +45 +45 опасность
перегрева
1002.8 1001.5
15 16.07 Ю 6 10 км 6/3 600 м
[Cu hum Ac lent Cs]
+29.5 +25.7 80 +44 +44 опасность
перегрева
1005.2 1003.8
18 16.07 ЮЗ 6 10 км 6/3 600 м
[Cu hum Ac lent Cs]
+29.4 +23.3 70 +40 +40 очень
душно
1005.6 1004.2
21 16.07 ЮЗ 10 10 км 5/1 600 м
[Cu hum Ac lent Cs]
+28.3 +23.0 73 +38 +38 очень
душно
1004.1 1002.7
00 17.07 ЮЗ 8 10 км 8/1 600 м
[Cu hum Ac trans Cs]
+28.5 +23.2 73 +38 +38 очень
душно
1004.7 1003.3 +27.9
03 17.07 ЮЗ 9 10 км 8/3 600 м
[Cu hum Ac trans Cs]
+31.4 +23.3 62 +42 +43 опасность
перегрева
1005.2 1003.8
06 17.07 З 11 10 км 8/3 600 м
[Cu Sc Ac lent Cc]
+33.6 +23.9 57 +45 +45 опасность
перегрева
1004.1 1002.7
09 17.07 Ю 6 10 км 8/3 600 м
[Cu Sc Ac lent Cs]
+32.7 +24.9 64 +46 +48 опасность
перегрева
1001.9 1000.5
12 17.07 Ю 6 10 км 8/4 600 м
[Cu Sc Ac trans Cs]
+31.0 +24.1 67 +43 +43 опасность
перегрева
1002.4 1001.0 +33.9
15 17.07 Ю 7 10 км 9/1 600 м
[Cu Sc Ac trans Cs]
+30.3 +24.1 69 +42 +42 опасность
перегрева
1004.9 1003.5
18 17.07 З 7 10 км 8/1 600 м
[Cu hum Ac trans Cs]
+29.4 +23.1 69 +39 +39 очень
душно
1004.7 1003.3
21 17.07 ЮЗ 6 10 км 8/1 600 м
[Cu hum Ac trans Cs]
+28.2 +22.8 73 +38 +38 очень
душно
1003.6 1002.2
00 18.07 штиль 0 10 км 6/1 600 м
[Cu hum Ac lent Cs]
+29.2 +23.4 71 +40 +41 очень
душно
1004.4 1003.0 +26.8
03 18.07 Ю 5 10 км 6/3 600 м
[Cu hum Ac lent Cs]
+32.1 +23.6 61 +43 +48 опасность
перегрева
1004.9 1003.6
06 18.07 ЮЗ 6 10 км 8/4 600 м
[Cb calv Ac trans Cs]
+34.0 +24.3 57 +46 +50 опасность
перегрева
1004.1 1002.7
09 18.07 ЮЗ 6 10 км 9/4 600 м
[Cb calv Ac trans Cs]
+34.6 +25.7 60 +50 +51 опасность
перегрева
1001.8 1000.5
12 18.07 Ю 10 10 км 9/4 600 м
[Cb cap Ac trans Cs]
+30.9 +24.9 70 +44 +44 опасность
перегрева
1003.3 1001.9 +34.6
15 18.07 Ю 8 10 км 5/1 600 м
[Cu hum Ac trans Cs]
+30.0 +26.1 80 +45 +45 опасность
перегрева
1005.2 1003.8
18 18.07 ЮЗ 9 10 км 5/1 600 м
[Cu hum Ac lent Cs]
+29.3 +23.5 71 +40 +40 очень
душно
1004.8 1003.4
21 18.07 З 5 10 км 5/1 600 м
[Cu hum Ac lent Cs]
+28.1 +23.4 76 +38 +38 очень
душно
1003.8 1002.4
00 19.07 З 8 10 км 5/1 600 м
[Cu hum Ac lent Cs]
+28.4 +23.8 76 +39 +39 очень
душно
1005.1 1003.7
03 19.07 З 11 10 км 5/1 600 м
[Cu hum Ac trans Cs]
+32.2 +24.2 63 +44 +45 опасность
перегрева
1005.7 1004.3
06 19.07 З 9 10 км 5/3 600 м
[Cu med, cong Ac trans Cs]
+34.3 +23.7 54 +45 +47 опасность
перегрева
1005.1 1003.7
09 19.07 В 4 10 км 6/4 1000 м
[Cu med, cong Ac trans Cs]
+35.2 +24.0 52 +47 +49 опасность
перегрева
1002.1 1000.7
12 19.07 Ю 14 10 км 8/3 600 м
[Cb cap Ac lent Cs]
+30.8 +25.4 73 +45 +45 опасность
перегрева
1003.5 1002.1 +35.3
15 19.07 СЗ 11 8000 м слаб. дождь 9/4 300 м
[Cb cap Ac As Cs]
+25.6 +24.1 91 +35 +35 очень
душно
1007.3 1005.9 0.0
18 19.07 ЮЗ 4 10 км в посл. час дождь {гроза} 8/1 600 м
[Cu Sc Ac trans Cs]
+26.1 +24.9 93 +37 +37 очень
душно
1006.2 1004.8 8
21 19.07 штиль 0 10 км 5/3 600 м
[Cu med, cong Ac trans Cs]
+25.7 +25.1 96 +37 +37 очень
душно
1005.0 1003.6
00 20.07 штиль 0 10 км 5/1 600 м
[Cu med, cong Ac trans Cs]
+26.7 +24.7 89 +38 +39 очень
душно
1006.4 1005.0 +25.4
03 20.07 З 5 10 км 6/4 600 м
[Cb calv Ac trans Cs]
+30.6 +25.5 74 +45 +49 опасность
перегрева
1007.2 1005.8
06 20.07 СЗ 5 10 км 8/4 600 м
[Cb calv Ac trans Cs]
+32.9 +24.7 62 +46 +50 опасность
перегрева
1006.1 1004.7
09 20.07 ЮЗ 7 10 км в посл. час дождь 9/4 600 м
[Cu Sc Ac As Cs]
+31.0 +25.8 74 +46 +47 опасность
перегрева
1004.8 1003.4 2
12 20.07 Ю 11 10 км {дождь} 9/3 600 м
[Cu Sc Ac As Cs]
+29.6 +25.5 79 +44 +44 опасность
перегрева
1005.7 1004.3 +33.6 2
15 20.07 Ю 5 10 км 8/3 600 м
[Cu Sc Ac trans Cs]
+29.2 +26.7 86 +45 +45 опасность
перегрева
1007.4 1006.0

 

Местоположение метеостанции Дон Муанг (Таиланд): широта 13.92 долгота 100.60 высота над уровнем моря 12 м.

В архиве по умолчанию представлена погода в Дон Муанг за последнюю неделю. Архивные данные за месяц целиком и за предыдущие месяцы, начиная с января 2011 года, Вы можете получить, выбрав интересующий диапазон дат из раскрывающегося списка и нажав кнопку "Ввод!".


*Определитесь, кто Вы:
робот инопланетянин человек

Внимание! Время в таблицах - всемирное. Для получения местного времени необходимо прибавить поправку, которая равна 7 ч.

Смотрите также архив погоды в соседних городах и на ближайших метеорологических станциях:

Погода в Патхумтхани (Таиланд) (20 км)
Погода в Бангкоке (Таиланд) (22 км)
Погода в Бангкоке 2 (Таиланд) (25 км)
Погода в Бангна Агромете (Таиланд) (28 км)
Погода в Аэропорту Суварнабхуми (Таиланд) (32 км)
Погода в Самутрудкан Агромете (Таиланд) (47 км)
Погода в Бангкок Пилот (Таиланд) (60 км)
Погода в Аюттхая (Таиланд) (68 км)
Погода в Накхонпатхоме (Таиланд) (69 км)
Погода в Чонбури (Таиланд) (74 км)

Пояснения к столбцам:

Ветер - указаны скорость ветра в м/с - средняя за 10 мин, порывы в срок и между сроками (в фигурных скобках) и направление, откуда дует ветер: С - северный, СВ - северо-восточный, В - восточный, ЮВ - юго-восточный, Ю - южный, ЮЗ - юго-западный, З - западный, СЗ - северо-западный.
Видимость - горизонтальная дальность видимости в метрах или километрах. При видимости от 1 до 10 км при отсутствии осадков обычно наблюдается дымка, при ухудшении видимости до 1 км и менее - туман. В сухую погоду видимость может ухудшаться дымом, пылью или мглою.
Явления - указаны атмосферные явления, наблюдавшиеся в срок или в последний час перед сроком; фигурными скобками обозначены явления, наблюдавшиеся между сроками (за 1-3 часа до срока); квадратными скобками обозначены град или гололедные отложения с указанием их диаметра в мм.
Облачность - указаны через наклонную черту общая и нижняя облачность в баллах и высота нижней границы облаков в метрах; квадратными скобками обозначены формы облаков: Ci - перистые, Cs - перисто-слоистые, Cc - перисто-кучевые, Ac - высококучевые, As - высокослоистые, Sc - слоисто-кучевые, Ns - слоисто-дождевые, Cu - кучевые, Cb - кучево-дождевые. Подробнее классификацию облаков см. в Атласе облаков (PDF).
T - Температура воздуха - температура, измеренная на высоте 2 м над землей.
Td - Температура точки росы - температура, при понижении до которой содержащийся в воздухе водяной пар достигнет насыщения.
f - Относительная влажность воздуха - влажноcть воздуха, измеренная на высоте 2 м над землей.
Te - Эффективная температура - температура, которую ощущает одетый по сезону человек в тени. Характеристика душности погоды. При расчете учитывается влияние влажности воздуха и скорости ветра на теплоощущения человека.
Tes - Эффективная температура на солнце - температура, которую ощущает человек, с поправкой на солнечный нагрев. Характеристика знойности погоды. Зависит от высоты солнца над горизонтом, облачности и скорости ветра. Ночью, в пасмурную погоду, а также при ветре 12 м/с и более поправка равна нулю.
P - Атмосферное давление - приведенное к уровню моря атмосферное давление.
Po - Атмосферное давление - измеренное на уровне метеостанции атмосферное давление.
Tmin - Минимальная температура - минимум температуры воздуха на высоте 2 м над землей.
Tmax - Максимальная температура - максимум температуры воздуха на высоте 2 м над землей.
R - Количество осадков - Количество выпавших осадков за период времени, мм. При наведении курсора мыши на число - период времени, за который выпало указанное количество осадков.
R24 - Количество осадков - Количество выпавших осадков за 24 часа, мм.
S - Снежный покров - Высота снежного покрова, см. При наведении курсора мыши на число - состояние снежного покрова и степень покрытия местности в баллах.